When you browse on this site, cookies collect data to enhance your experience and personalize the content and advertising you see.
Visit our Privacy Policy to learn more. By continuing to use the site, you agree to this use of cookies and data.
  • en France
  • Liste des pays
  • À 7 jours
  • Température de l'eau
  • Carte météo
  • Widgets météo
  • user-avatar
    Se connecter

    Météo par heure à Bochenka

    Ce jour, 19 Février, Mercredi

    Heure Température Précipitation Vent Pression Humidité
    00:00 +1°C° 0 mm 4 m/s 741 mmHg 74%
    01:00 +1°C° 0 mm 4 m/s 741 mmHg 74%
    02:00 +1°C° 0 mm 4 m/s 741 mmHg 76%
    03:00 0°C° 0 mm 4 m/s 740 mmHg 79%
    04:00 0°C° 0 mm 4 m/s 740 mmHg 81%
    05:00 0°C° 0 mm 4 m/s 740 mmHg 83%
    06:00 0°C° 0 mm 4 m/s 739 mmHg 84%
    07:00 -1°C° 0 mm 4 m/s 739 mmHg 85%
    08:00 0°C° 0 mm 4 m/s 739 mmHg 80%
    09:00 +1°C° 0 mm 5 m/s 739 mmHg 75%
    10:00 +2°C° 0 mm 5 m/s 739 mmHg 71%
    11:00 +3°C° 0 mm 5 m/s 738 mmHg 66%
    12:00 +5°C° 0 mm 5 m/s 737 mmHg 62%
    13:00 +5°C° 0 mm 6 m/s 737 mmHg 57%
    14:00 +6°C° 0 mm 5 m/s 736 mmHg 59%
    15:00 +6°C° 0 mm 5 m/s 736 mmHg 60%
    16:00 +6°C° 0 mm 5 m/s 736 mmHg 62%
    17:00 +5°C° 0.1 mm 5 m/s 736 mmHg 70%
    18:00 +3°C° 0.1 mm 5 m/s 736 mmHg 79%
    19:00 +2°C° 0.1 mm 5 m/s 736 mmHg 88%
    20:00 +2°C° 0.4 mm 5 m/s 736 mmHg 86%
    21:00 +2°C° 0.4 mm 6 m/s 737 mmHg 85%
    22:00 +1°C° 0.4 mm 6 m/s 737 mmHg 83%
    23:00 +1°C° 0 mm 6 m/s 737 mmHg 82%

    Demain, 20 Février, Jeudi

    Heure Température Précipitation Vent Pression Humidité
    00:00 +1°C° 0 mm 5 m/s 738 mmHg 80%
    01:00 +1°C° 0 mm 5 m/s 738 mmHg 78%
    02:00 +1°C° 0 mm 5 m/s 738 mmHg 81%
    03:00 0°C° 0 mm 5 m/s 739 mmHg 84%
    04:00 0°C° 0 mm 4 m/s 739 mmHg 87%
    05:00 0°C° 0.4 mm 5 m/s 739 mmHg 88%
    06:00 0°C° 0.4 mm 5 m/s 740 mmHg 88%
    07:00 0°C° 0.4 mm 5 m/s 740 mmHg 89%
    08:00 0°C° 0.1 mm 5 m/s 741 mmHg 85%
    09:00 +1°C° 0.1 mm 4 m/s 741 mmHg 82%
    10:00 +1°C° 0.1 mm 4 m/s 741 mmHg 78%
    11:00 +3°C° 0.1 mm 4 m/s 742 mmHg 75%
    12:00 +3°C° 0.1 mm 3 m/s 742 mmHg 71%
    13:00 +3°C° 0.1 mm 3 m/s 742 mmHg 68%
    14:00 +3°C° 0 mm 3 m/s 742 mmHg 68%
    15:00 +4°C° 0 mm 2 m/s 742 mmHg 67%
    16:00 +4°C° 0 mm 2 m/s 742 mmHg 66%
    17:00 +3°C° 0 mm 2 m/s 742 mmHg 70%
    18:00 +3°C° 0 mm 2 m/s 742 mmHg 74%
    19:00 +2°C° 0 mm 2 m/s 742 mmHg 78%
    20:00 +2°C° 0 mm 2 m/s 741 mmHg 80%
    21:00 +1°C° 0 mm 3 m/s 741 mmHg 82%
    22:00 0°C° 0 mm 3 m/s 741 mmHg 84%
    23:00 -1°C° 0 mm 4 m/s 740 mmHg 82%

    Après-demain, 21 Février, Vendredi

    Heure Température Précipitation Vent Pression Humidité
    00:00 -1°C° 0 mm 4 m/s 740 mmHg 79%
    01:00 -1°C° 0 mm 5 m/s 740 mmHg 77%
    02:00 -1°C° 0 mm 5 m/s 739 mmHg 81%
    03:00 -2°C° 0 mm 6 m/s 738 mmHg 85%
    04:00 -2°C° 0 mm 7 m/s 738 mmHg 88%
    05:00 -2°C° 0.2 mm 7 m/s 737 mmHg 91%
    06:00 -1°C° 0.2 mm 7 m/s 737 mmHg 93%
    07:00 -1°C° 0.2 mm 7 m/s 736 mmHg 95%
    14:00 +1°C° 0.1 mm 8 m/s 741 mmHg 64%
    15:00 +1°C° 0.1 mm 8 m/s 742 mmHg 67%
    16:00 +2°C° 0.1 mm 7 m/s 742 mmHg 70%
    17:00 +1°C° 0 mm 6 m/s 743 mmHg 71%
    18:00 +1°C° 0 mm 6 m/s 744 mmHg 73%
    19:00 0°C° 0 mm 5 m/s 745 mmHg 74%
    20:00 0°C° 0 mm 5 m/s 745 mmHg 77%
    21:00 0°C° 0 mm 4 m/s 745 mmHg 80%
    22:00 -1°C° 0 mm 4 m/s 745 mmHg 83%
    23:00 -1°C° 0 mm 4 m/s 745 mmHg 83%

    22 Février, Samedi

    Heure Température Précipitation Vent Pression Humidité
    00:00 -1°C° 0 mm 4 m/s 746 mmHg 84%
    01:00 -2°C° 0 mm 4 m/s 746 mmHg 85%
    02:00 -2°C° 0 mm 4 m/s 745 mmHg 85%
    03:00 -2°C° 0 mm 4 m/s 745 mmHg 86%
    04:00 -2°C° 0 mm 4 m/s 745 mmHg 86%
    05:00 -2°C° 0 mm 4 m/s 745 mmHg 83%
    06:00 -1°C° 0 mm 5 m/s 745 mmHg 81%
    07:00 -1°C° 0 mm 5 m/s 745 mmHg 78%
    08:00 0°C° 0 mm 5 m/s 744 mmHg 73%
    09:00 +1°C° 0 mm 6 m/s 744 mmHg 67%
    10:00 +2°C° 0 mm 7 m/s 743 mmHg 62%
    11:00 +2°C° 0 mm 7 m/s 743 mmHg 60%
    12:00 +3°C° 0 mm 7 m/s 742 mmHg 59%
    13:00 +4°C° 0 mm 8 m/s 742 mmHg 57%
    14:00 +4°C° 0 mm 7 m/s 741 mmHg 56%
    15:00 +5°C° 0 mm 7 m/s 740 mmHg 55%
    16:00 +5°C° 0 mm 7 m/s 739 mmHg 53%
    17:00 +5°C° 0 mm 7 m/s 739 mmHg 54%
    18:00 +5°C° 0 mm 8 m/s 739 mmHg 54%
    19:00 +5°C° 0 mm 8 m/s 739 mmHg 54%
    20:00 +5°C° 0 mm 8 m/s 739 mmHg 55%
    21:00 +5°C° 0 mm 8 m/s 739 mmHg 55%
    22:00 +5°C° 0 mm 8 m/s 738 mmHg 56%
    23:00 +5°C° 0 mm 8 m/s 738 mmHg 59%

    23 Février, Dimanche

    Heure Température Précipitation Vent Pression Humidité
    00:00 +5°C° 0 mm 8 m/s 738 mmHg 62%
    01:00 +5°C° 0 mm 8 m/s 738 mmHg 65%
    02:00 +5°C° 0.2 mm 8 m/s 738 mmHg 70%
    03:00 +4°C° 0.2 mm 8 m/s 738 mmHg 75%
    04:00 +4°C° 0.2 mm 7 m/s 737 mmHg 80%
    05:00 +4°C° 0.7 mm 7 m/s 738 mmHg 81%
    06:00 +2°C° 0.7 mm 8 m/s 738 mmHg 82%
    07:00 +2°C° 0.7 mm 8 m/s 738 mmHg 82%
    08:00 +4°C° 0.1 mm 8 m/s 738 mmHg 76%
    09:00 +4°C° 0.1 mm 8 m/s 738 mmHg 70%
    10:00 +5°C° 0.1 mm 8 m/s 738 mmHg 63%
    11:00 +5°C° 0.1 mm 8 m/s 738 mmHg 66%
    12:00 +4°C° 0.1 mm 7 m/s 737 mmHg 69%
    13:00 +4°C° 0.1 mm 7 m/s 737 mmHg 72%
    14:00 +4°C° 0.2 mm 6 m/s 736 mmHg 77%
    15:00 +3°C° 0.2 mm 6 m/s 736 mmHg 81%
    16:00 +3°C° 0.2 mm 5 m/s 735 mmHg 86%
    17:00 +3°C° 0.4 mm 5 m/s 734 mmHg 88%
    18:00 +4°C° 0.4 mm 4 m/s 733 mmHg 89%
    19:00 +4°C° 0.4 mm 4 m/s 732 mmHg 90%
    20:00 +5°C° 1.4 mm 5 m/s 730 mmHg 90%
    21:00 +5°C° 1.4 mm 7 m/s 728 mmHg 89%
    22:00 +6°C° 1.4 mm 9 m/s 727 mmHg 88%
    23:00 +6°C° 1.7 mm 9 m/s 726 mmHg 84%

    24 Février, Lundi

    Heure Température Précipitation Vent Pression Humidité
    00:00 +6°C° 1.7 mm 10 m/s 726 mmHg 81%
    01:00 +5°C° 1.7 mm 10 m/s 725 mmHg 77%
    02:00 +2°C° 0.6 mm 10 m/s 727 mmHg 83%
    03:00 +1°C° 0.6 mm 9 m/s 728 mmHg 88%
    04:00 -1°C° 0.6 mm 8 m/s 730 mmHg 94%
    05:00 -1°C° 0.4 mm 9 m/s 731 mmHg 87%
    06:00 -2°C° 0.4 mm 10 m/s 733 mmHg 81%
    07:00 -2°C° 0.4 mm 10 m/s 735 mmHg 74%
    08:00 -2°C° 0.1 mm 11 m/s 735 mmHg 76%
    09:00 -2°C° 0.1 mm 11 m/s 736 mmHg 78%
    10:00 -2°C° 0.1 mm 12 m/s 737 mmHg 80%
    11:00 -1°C° 0 mm 11 m/s 738 mmHg 75%
    12:00 -1°C° 0 mm 11 m/s 739 mmHg 70%
    13:00 +1°C° 0 mm 11 m/s 740 mmHg 65%
    14:00 +1°C° 0.1 mm 10 m/s 740 mmHg 63%
    15:00 +2°C° 0.1 mm 9 m/s 741 mmHg 61%
    16:00 +2°C° 0.1 mm 8 m/s 741 mmHg 59%
    17:00 +2°C° 0 mm 7 m/s 742 mmHg 62%
    18:00 +2°C° 0 mm 6 m/s 742 mmHg 66%
    19:00 +1°C° 0 mm 5 m/s 743 mmHg 69%
    20:00 0°C° 0 mm 5 m/s 743 mmHg 72%
    21:00 0°C° 0 mm 4 m/s 743 mmHg 76%
    22:00 -1°C° 0 mm 4 m/s 744 mmHg 80%
    23:00 0°C° 0 mm 3 m/s 743 mmHg 82%
    Voir plus